This demonstration page uses our WeatherBlox Daily Observations layout. Learn more.

Hourly Observations for March 1, 2019

Temp ( °F °C ) Dew Point ( °F °C ) Humidity (%) Winds ( mph kmh ) Pressure ( in mb ) Visibility ( mi km ) Precip ( " mm )
12:15 am 00:15 Partly Cloudy 12 -11.1 9 -12.7 88 88 S 6 9 30.21 1023 10 16.0934 0 0
12:35 am 00:35 Partly Cloudy 12 -11 9 -12.8 87 87 Calm 30.2 1023 10 16.0934 0 0
12:55 am 00:55 Clear 13 -10.3 10 -12.5 84 84 S 7 11 30.2 1023 10 16.0934 0 0
1:15 am 01:15 Clear 14 -10.1 10 -12.3 84 84 S 9 15 30.2 1023 10 16.0934 0 0
1:35 am 01:35 Partly Cloudy 15 -9.6 10 -12.1 82 82 S 12 19 30.17 1022 10 16.0934 0 0
1:55 am 01:55 Mostly Cloudy 13 -10.3 10 -12.3 85 85 SSE 14 22 30.15 1021 10 16.0934 0 0
2:15 am 02:15 Partly Cloudy 14 -10.2 10 -12.3 85 85 S 12 19 30.15 1021 10 16.0934 0 0
2:35 am 02:35 Clear 13 -10.5 9 -12.6 85 85 S 8 13 30.17 1022 10 16.0934 0 0
2:55 am 02:55 Clear 13 -10.7 9 -12.6 86 86 SSW 10 17 30.19 1022 10 16.0934 0 0
3:15 am 03:15 Clear 13 -10.8 10 -12.5 87 87 SSW 13 20 30.17 1022 10 16.0934 0 0
3:35 am 03:35 Clear 12 -11 10 -12.5 89 89 SSW 7 11 30.17 1022 10 16.0934 0 0
3:55 am 03:55 Partly Cloudy 13 -10.5 10 -12 89 89 S 7 11 30.16 1021 10 16.0934 0 0
4:15 am 04:15 Cloudy 13 -10.5 10 -12 89 89 SSE 5 7 30.15 1021 10 16.0934 0 0
4:35 am 04:35 Cloudy 15 -9.6 12 -11 90 90 S 5 7 30.13 1020 10 16.0934 0 0
4:55 am 04:55 Cloudy 15 -9.6 12 -11.1 89 89 S 3 6 30.13 1020 10 16.0934 0 0
5:15 am 05:15 Cloudy 15 -9.5 12 -11.2 88 88 SW 5 7 30.15 1021 10 16.0934 0 0
5:35 am 05:35 Cloudy 15 -9.2 12 -11.2 86 86 Calm 30.17 1022 10 16.0934 0 0
5:55 am 05:55 Partly Cloudy 15 -9.7 11 -11.5 87 87 SSW 3 6 30.16 1021 10 16.0934 0 0
6:15 am 06:15 Clear 14 -9.8 11 -11.6 87 87 Calm 30.16 1021 10 16.0934 0 0
6:35 am 06:35 Clear 14 -10.1 11 -11.9 87 87 SSW 3 6 30.17 1022 10 16.0934 0 0
6:55 am 06:55 Clear 13 -10.4 10 -12.1 87 87 Calm 30.16 1021 10 16.0934 0 0
7:15 am 07:15 Partly Cloudy 12 -11.1 9 -12.8 87 87 ESE 6 9 30.15 1021 10 16.0934 0 0
7:35 am 07:35 Mostly Cloudy 13 -10.5 10 -12 89 89 S 5 7 30.15 1021 10 16.0934 0 0
7:55 am 07:55 Mostly Cloudy 13 -10.5 11 -11.9 90 90 S 8 13 30.13 1020 10 16.0934 0 0
8:15 am 08:15 Sunny 14 -10.1 10 -12 86 86 S 7 11 30.12 1020 10 16.0934 0 0
8:35 am 08:35 Sunny 15 -9.7 10 -12 84 84 S 12 19 30.12 1020 10 16.0934 0 0
8:55 am 08:55 Sunny 15 -9.5 11 -11.8 84 84 S 10 17 30.13 1020 10 16.0934 0 0
9:15 am 09:15 Sunny 16 -9 12 -11.3 84 84 S 8 13 30.12 1020 10 16.0934 0 0
9:35 am 09:35 Sunny 17 -8.3 12 -11 81 81 S 9 15 30.13 1020 10 16.0934 0 0
9:55 am 09:55 Sunny 19 -7.1 14 -9.8 81 81 S 9 15 30.09 1019 10 16.0934 0 0
10:15 am 10:15 Sunny 20 -6.6 15 -9.3 81 81 S 10 17 30.1 1019 10 16.0934 0 0
10:35 am 10:35 Sunny 21 -6.1 16 -8.9 81 81 SSW 9 15 30.1 1019 10 16.0934 0 0
10:55 am 10:55 Sunny 22 -5.4 17 -8.3 80 80 SSW 12 19 30.1 1019 10 16.0934 0 0
11:15 am 11:15 Sunny 24 -4.7 19 -7.5 81 81 W 7 11 30.13 1020 10 16.0934 0 0
11:35 am 11:35 Sunny 25 -4.1 19 -7.1 80 80 W 8 13 30.13 1020 10 16.0934 0 0
11:55 am 11:55 Sunny 25 -4.1 19 -7.2 79 79 W 8 13 30.14 1021 7 11.26538 0 0
12:15 pm 12:15 Sunny 25 -3.8 19 -7.1 78 78 WNW 9 15 30.14 1021 10 16.0934 0 0
12:35 pm 12:35 Partly Cloudy 26 -3.5 19 -7.1 76 76 WNW 8 13 30.14 1021 10 16.0934 0 0
12:55 pm 12:55 Mostly Cloudy 28 -2.1 21 -5.9 76 76 NW 7 11 30.13 1020 10 16.0934 0 0
1:15 pm 13:15 Cloudy 29 -1.7 22 -5.5 76 76 NW 6 9 30.12 1020 10 16.0934 0 0
1:55 pm 13:55 Cloudy 32 0.1 26 -3.4 78 78 N 20 31 30.13 1020 10 16.0934 0 0
2:15 pm 14:15 Mostly Cloudy 32 0 25 -3.9 75 75 N 18 30 30.14 1020 10 16.0934 0 0
2:35 pm 14:35 Mostly Cloudy 32 -0.2 24 -4.4 74 74 N 21 33 30.15 1021 10 16.0934 0 0
2:55 pm 14:55 Cloudy 30 -1.1 23 -4.8 76 76 N 18 30 30.18 1022 10 16.0934 0 0
3:15 pm 15:15 Mostly Cloudy 30 -1 23 -5 75 75 N 18 30 30.17 1022 10 16.0934 0 0
3:35 pm 15:35 Cloudy 29 -1.7 22 -5.5 76 76 N 20 31 30.19 1022 10 16.0934 0 0
3:55 pm 15:55 Mostly Cloudy 29 -1.9 22 -5.5 77 77 N 16 26 30.2 1023 10 16.0934 0 0
4:15 pm 16:15 Partly Cloudy 28 -2 22 -5.7 76 76 N 16 26 30.21 1023 10 16.0934 0 0
4:35 pm 16:35 Partly Cloudy 28 -2.5 22 -5.8 78 78 N 15 24 30.23 1024 10 16.0934 0 0
4:55 pm 16:55 Mostly Cloudy 28 -2.5 21 -6 77 77 N 16 26 30.24 1024 10 16.0934 0 0
5:15 pm 17:15 Mostly Cloudy 27 -3 21 -5.9 81 81 N 14 22 30.24 1024 10 16.0934 0 0
5:35 pm 17:35 Cloudy 26 -3.2 21 -6 81 81 N 13 20 30.27 1025 10 16.0934 0 0
5:55 pm 17:55 Cloudy 26 -3.3 20 -6.6 78 78 N 14 22 30.29 1026 10 16.0934 0 0
6:15 pm 18:15 Mostly Cloudy 25 -3.9 19 -7.1 79 79 N 15 24 30.28 1026 10 16.0934 0 0
6:35 pm 18:35 Mostly Cloudy 24 -4.4 19 -7.2 81 81 N 12 19 30.3 1026 10 16.0934 0 0
6:55 pm 18:55 Partly Cloudy 22 -5.5 18 -8 83 83 N 13 20 30.33 1027 10 16.0934 0 0
7:15 pm 19:15 Clear 20 -6.5 16 -8.8 84 84 N 10 17 30.35 1028 10 16.0934 0 0
7:35 pm 19:35 Clear 19 -7.2 15 -9.2 86 86 N 7 11 30.37 1028 10 16.0934 0 0
7:55 pm 19:55 Clear 18 -7.9 15 -9.5 88 88 N 6 9 30.38 1029 10 16.0934 0 0
8:15 pm 20:15 Clear 19 -7.5 15 -9.4 86 86 N 3 6 30.39 1029 10 16.0934 0 0
8:35 pm 20:35 Clear 18 -7.7 15 -9.5 87 87 Calm 30.39 1029 10 16.0934 0 0
8:55 pm 20:55 Clear 17 -8.5 14 -10.1 88 88 N 10 17 30.39 1029 10 16.0934 0 0
9:15 pm 21:15 Clear 16 -9 13 -10.5 89 89 NNE 7 11 30.41 1030 10 16.0934 0 0
9:35 pm 21:35 Clear 16 -8.8 14 -10.2 90 90 N 9 15 30.42 1030 10 16.0934 0 0
9:55 pm 21:55 Partly Cloudy 16 -8.7 13 -10.3 88 88 NNE 8 13 30.41 1030 10 16.0934 0 0
10:15 pm 22:15 Partly Cloudy 17 -8.6 14 -9.9 90 90 N 8 13 30.42 1030 10 16.0934 0 0
10:35 pm 22:35 Cloudy 17 -8.6 14 -10.1 89 89 N 10 17 30.41 1030 10 16.0934 0 0
10:55 pm 22:55 Mostly Cloudy 16 -8.7 14 -10.1 90 90 NNE 7 11 30.41 1030 10 16.0934 0 0
11:15 pm 23:15 Mostly Cloudy 18 -8 15 -9.4 90 90 N 8 13 30.42 1030 10 16.0934 0 0
11:35 pm 23:35 Cloudy 18 -7.8 15 -9.2 90 90 N 9 15 30.41 1030 10 16.0934 0 0
11:55 pm 23:55 Cloudy 19 -7.4 16 -8.9 89 89 N 10 17 30.41 1030 10 16.0934 0 0

Powered by AerisWeather